RH
93 99 68 53 45 53 30 29 72 53 45 40 52 46 42 40 30 66 82 75 67 55 62 48 35 32 39 36 28 24 26 30 30 33 42 38 27 42 52 30 40 90 93 59 59 60 61
96 90 76 68 48 36 35 40 58 60 76 26 48 61 50 43 38 47 64 96 88 82 63 68 55 42 50 53 36 24 26 28 28 41 37 52 30 29 27 24 32 44 50 57 64 61 59
100 100 99 53 58 38 40 40 38 33 76 54 48 39 48 54 47 39 48 92 88 95 79 77 68 68 67 67 45 29 32 27 30 36 45 53 41 29 25 25 26 41 52 74 76 93 94
100 98 54 68 91 58 43 45 28 26 88 78 78 58 45 75 51 58 58 83 100 100 98 87 78 80 85 84 65 31 34 34 31 28 26 23 26 27 25 33 27 32 51 80 92 85 97
100 79 43 100 100 91 36 52 32 28 53 82 75 68 63 58 54 47 49 74 86 87 100 91 83 88 90 92 91 55 46 65 45 29 29 34 36 29 28 40 40 46 41 53 54 62 64
100 80 96 100 74 96 73 64 62 26 37 41 85 93 85 85 67 92 68 56 84 80 97 100 94 85 94 100 100 98 78 80 67 53 52 57 53 38 34 29 56 39 33 30 39 61 59
99 98 56 100 89 100 91 94 97 46 31 34 33 43 68 82 81 79 99 100 97 97 75 100 93 81 76 100 99 100 100 92 86 64 70 75 63 43 36 40 45 56 59 42 63 56 69
97 100 97 94 92 99 100 100 100 70 31 29 40 33 38 38 55 48 49 75 80 100 100 91 91 88 79 78 74 94 100 100 97 98 80 86 98 74 45 48 56 76 60 42 55 64 64
88 58 100 100 98 90 93 100 100 100 48 27 38 38 32 33 35 29 27 44 59 100 99 100 98 86 86 74 64 82 100 100 100 100 100 100 100 93 57 46 68 81 92 60 51 50 53
78 100 100 91 92 99 83 100 100 100 69 36 36 36 32 33 38 33 26 27 44 67 99 86 100 100 100 94 65 55 99 100 100 100 100 100 100 89 67 53 65 88 71 60 40 41 38
83 99 99 100 100 90 62 85 100 100 100 63 35 38 40 32 28 40 38 30 28 38 85 100 100 100 100 100 84 60 60 100 100 100 100 100 100 100 94 100 89 50 46 80 99 87 41
99 65 67 100 100 95 100 76 100 100 100 100 59 36 39 38 30 27 35 38 29 26 28 65 100 100 100 100 89 62 60 93 100 92 100 100 100 100 100 86 64 66 64 41 44 39 43
91 65 96 100 100 100 93 97 85 100 100 100 98 50 32 40 32 28 28 36 34 26 26 25 64 97 100 100 90 67 67 86 84 88 99 100 100 100 100 81 65 52 36 31 36 56 68
69 68 100 100 98 100 100 100 100 100 100 100 100 91 34 37 29 28 29 32 30 25 24 26 33 75 100 100 98 80 68 55 61 59 69 99 100 80 60 46 41 40 47 46 52 70 41
61 74 89 100 100 100 100 100 100 99 100 100 100 100 66 29 31 28 30 33 28 24 24 24 24 70 100 100 100 92 75 57 51 40 42 47 59 45 47 53 60 63 57 72 71 43 43
49 70 81 68 100 97 95 100 92 94 100 100 100 100 100 66 25 28 33 31 25 26 24 23 20 55 100 100 100 92 63 56 52 44 48 52 62 60 64 76 68 68 62 53 40 39 47
60 69 67 64 97 100 98 86 100 100 100 100 100 100 100 100 45 24 30 34 26 25 24 22 21 38 99 100 100 86 81 68 59 60 60 64 97 91 87 74 64 65 64 70 58 56 62
31 69 93 100 100 100 77 86 82 90 99 100 78 100 100 100 97 28 26 29 28 25 25 22 22 36 100 100 100 87 68 75 87 93 91 93 88 79 62 52 72 100 100 78 44 38 42
29 40 71 99 100 100 100 100 91 99 100 92 81 100 100 100 100 68 24 26 27 25 25 22 23 37 98 100 89 98 85 67 64 66 72 100 90 80 75 67 94 100 81 56 39 44 43
31 27 41 71 100 100 100 100 100 100 99 89 67 99 100 100 100 100 43 22 27 25 23 23 23 46 100 100 93 87 61 60 64 62 75 82 90 100 100 89 100 97 77 56 55 46 49
38 36 28 40 74 92 100 100 100 100 96 90 57 73 90 100 100 100 70 23 23 23 22 24 26 74 100 100 100 100 91 70 61 65 81 85 99 100 100 100 97 78 68 84 52 57 40
51 32 34 28 24 66 99 98 95 96 92 99 81 86 81 100 100 100 84 25 24 23 23 25 41 90 100 100 100 100 100 99 85 74 90 85 94 94 91 83 61 84 77 85 62 46 41
73 56 37 29 27 34 52 80 80 82 81 90 99 84 96 100 97 100 75 26 22 23 24 32 73 100 100 100 100 100 95 82 76 72 89 99 86 76 73 58 54 57 80 82 59 44 48
100 98 69 51 28 22 33 43 44 49 60 86 84 88 91 80 83 77 39 22 22 24 40 80 100 100 100 100 99 98 92 98 98 85 62 58 59 62 59 53 76 95 90 96 52 46 56
100 100 100 95 80 47 33 33 35 47 55 52 51 45 42 38 35 32 27 25 33 68 99 100 100 100 100 98 91 70 54 52 80 96 100 100 100 96 86 63 68 98 82 63 51 63 58
100 100 100 100 100 92 80 41 40 32 34 45 45 46 38 34 32 29 38 62 94 100 100 100 100 100 99 89 72 58 59 71 83 100 100 100 90 80 88 75 71 74 59 47 44 46 53
92 100 100 100 100 100 100 96 90 74 62 61 50 43 42 50 61 76 96 100 100 100 100 100 100 100 98 80 70 68 72 94 100 97 86 77 66 71 73 74 71 54 50 46 48 50 59
78 100 100 98 100 100 100 100 100 100 100 99 98 95 96 93 99 100 100 100 100 100 100 100 99 87 65 57 62 74 75 77 80 71 58 69 87 100 68 65 58 59 51 50 56 72 69
52 78 100 100 99 89 100 100 100 100 100 100 100 100 100 100 100 100 100 100 100 100 100 100 76 69 63 88 79 78 93 92 76 92 100 100 97 60 46 47 55 64 54 58 61 68 66
Wind_Speed
25 13 20 15 16 12 5 7 11 14 12 11 10 15 19 21 23 19 23 23 29 35 40 38 33 35 40 38 37 39 39 38 40 41 41 43 43 43 44 48 50 51 51 53 55 58 54
26 22 22 16 19 18 12 10 12 17 13 13 7 11 16 20 19 21 20 21 29 31 35 37 32 31 33 35 35 34 36 34 37 36 39 41 40 41 43 43 46 49 49 54 59 57 57
27 25 16 32 26 23 19 15 19 22 19 12 6 10 13 16 18 17 21 21 25 25 32 34 32 32 33 33 32 31 31 34 35 32 33 37 37 41 44 43 45 46 48 52 57 67 57
27 28 32 36 28 28 25 27 27 23 14 18 9 10 12 13 14 19 17 21 25 26 27 32 34 34 30 32 30 27 30 33 31 33 31 34 40 48 48 48 43 44 44 51 54 58 59
41 31 33 35 31 24 31 31 27 25 20 19 14 12 10 11 15 17 18 17 20 23 27 31 32 31 32 33 29 26 29 32 31 32 34 36 41 45 44 47 44 43 46 52 58 61 62
39 29 35 30 32 24 26 33 29 26 21 22 20 13 10 10 14 19 19 16 20 22 24 27 29 30 33 37 29 31 30 30 30 29 30 36 40 40 43 43 50 49 55 54 53 57 63
42 37 34 31 33 29 25 31 31 28 25 22 24 24 19 18 19 20 23 23 21 23 21 24 26 28 31 34 35 34 31 28 30 28 29 34 40 38 43 47 51 57 59 54 51 54 62
44 45 38 36 36 32 29 32 33 30 30 24 22 22 21 22 22 23 25 26 26 23 21 23 24 27 30 31 31 36 34 34 35 33 30 37 40 40 45 50 54 57 58 55 52 55 56
49 49 47 42 38 33 32 35 34 34 33 31 25 23 26 23 25 27 28 28 31 25 24 23 29 33 30 30 28 30 35 38 47 39 38 39 42 42 43 49 54 58 55 56 56 64 67
47 45 52 47 42 37 35 38 37 37 33 36 31 30 28 29 28 28 28 29 32 32 25 29 33 32 34 37 30 30 30 39 48 48 44 42 44 43 47 50 57 61 57 59 69 73 72
51 52 54 49 45 40 44 41 42 40 38 36 36 35 32 31 30 31 33 32 32 34 31 32 34 35 36 36 31 33 31 34 43 43 46 46 45 46 50 53 56 55 56 62 73 74 73
53 52 51 48 40 42 41 41 44 40 44 41 40 40 36 36 35 33 36 37 36 36 37 37 37 38 37 33 34 34 36 36 41 41 43 48 51 52 53 54 56 59 62 68 74 75 75
59 61 55 43 42 46 47 47 44 44 46 47 45 45 41 40 40 37 37 40 40 40 40 39 40 41 41 35 37 41 41 40 42 44 43 47 51 53 54 55 61 64 66 71 69 76 83
61 58 55 44 50 45 46 46 47 49 49 50 50 48 45 44 41 40 39 40 41 42 43 43 43 42 39 36 39 40 44 47 45 47 45 45 48 51 55 62 63 67 70 69 74 77 76
65 62 59 51 55 51 52 50 47 41 45 48 55 53 50 48 47 43 42 41 41 42 46 45 45 44 44 41 44 45 49 52 48 45 48 48 51 56 60 63 67 68 70 76 81 76 84
63 67 65 58 53 54 56 55 55 49 48 47 54 58 55 53 51 47 45 44 45 45 47 48 48 48 46 45 46 51 53 50 46 46 49 48 55 57 62 66 70 73 77 83 83 88 93
50 66 68 63 60 62 59 59 58 57 52 53 51 61 61 59 54 53 48 48 49 49 50 51 51 49 49 50 50 53 52 50 49 50 50 52 58 61 63 69 73 77 81 88 92 100 104
40 49 56 63 64 71 68 64 65 64 59 57 51 56 62 60 59 58 54 51 52 52 55 55 54 50 51 52 55 52 53 54 53 57 56 57 62 63 65 69 73 86 89 91 96 101 100
39 44 53 62 62 55 57 70 69 66 60 58 53 52 59 61 62 62 59 56 53 55 59 59 58 54 54 56 56 58 58 57 58 58 56 60 65 67 69 71 78 83 90 97 102 99 100
41 40 44 52 56 56 59 61 60 58 58 56 55 52 59 62 67 63 62 59 56 58 61 62 60 56 55 57 58 59 62 59 59 62 61 65 68 71 75 80 81 88 97 99 99 100 100
46 42 42 47 55 59 59 59 59 57 59 57 59 58 58 64 69 66 61 59 60 61 63 64 63 57 58 57 57 59 61 66 65 67 65 65 65 70 79 82 86 89 91 97 100 104 106
51 48 44 43 47 56 59 63 62 62 62 60 61 62 63 63 64 66 61 60 62 63 64 66 65 61 62 62 64 62 65 68 70 71 70 68 70 72 77 85 88 89 94 101 104 107 108
59 55 49 47 46 50 55 61 67 68 68 66 64 66 65 66 64 61 61 62 63 66 66 66 66 64 65 66 68 67 67 69 72 72 70 73 77 79 81 89 92 90 93 105 107 106 110
64 60 56 53 51 50 50 53 55 56 56 59 61 62 62 58 56 59 62 62 64 64 64 67 67 67 66 69 71 69 71 73 76 73 75 77 82 84 85 86 91 98 102 107 109 109 114
69 65 63 60 57 55 53 51 50 51 54 56 56 55 54 54 58 62 62 64 64 64 66 69 70 67 71 73 73 75 77 79 79 78 81 85 90 94 95 93 95 102 108 108 108 105 110
71 68 67 67 63 60 58 56 55 56 57 56 57 57 54 53 58 62 63 64 65 68 69 71 72 73 76 78 78 79 80 81 79 80 87 91 94 97 101 103 106 108 107 111 108 110 114
75 74 70 67 68 66 63 62 61 61 60 59 61 61 59 58 59 63 64 66 68 70 72 75 76 78 80 81 76 75 77 79 82 86 91 94 99 104 107 109 108 111 114 112 117 114 117
78 76 76 75 71 68 67 66 67 68 67 65 65 67 66 65 64 65 66 70 72 74 76 77 79 79 81 82 79 79 81 86 89 93 98 101 106 107 108 112 116 117 114 117 119 120 124
80 80 78 77 77 77 74 71 72 72 72 73 72 74 74 73 71 71 73 75 77 79 78 79 82 82 81 82 85 85 87 91 95 97 102 106 112 114 116 125 124 126 123 118 119 123 125
Wind_Direction
289 279 303 260 242 245 245 295 321 326 339 356 7 18 15 22 22 26 24 31 39 35 33 32 36 40 38 42 40 34 38 49 50 46 50 41 42 37 32 35 38 34 28 21 16 13 13
275 289 284 259 234 235 260 269 284 312 316 326 345 4 358 10 17 19 12 19 23 27 22 25 28 34 36 36 33 36 40 48 38 44 40 33 32 24 24 30 31 29 24 22 19 16 14
263 280 272 293 268 235 249 262 278 304 304 314 321 349 349 356 10 3 16 13 8 14 17 18 21 21 21 27 31 36 48 30 30 37 34 27 26 19 20 18 21 23 21 20 20 21 14
256 266 287 278 248 242 246 260 274 282 307 300 308 328 340 342 1 7 1 359 359 4 13 10 11 13 13 16 26 33 32 23 25 26 26 23 18 16 18 15 13 16 20 20 19 14 10
259 273 270 262 263 245 242 256 268 279 293 300 297 313 319 342 358 3 357 349 350 358 360 360 5 4 7 9 16 21 18 17 16 18 19 16 15 19 17 20 18 15 11 13 7 6 5
253 258 259 260 276 257 249 250 263 269 282 294 296 322 314 335 355 357 359 346 343 349 348 350 354 359 360 1 1 358 359 5 12 10 9 12 9 11 7 12 10 7 9 4 1 0 3
247 242 248 255 268 261 274 257 258 268 270 282 292 300 316 323 340 352 1 359 343 326 342 338 342 350 352 354 351 350 347 353 359 4 357 358 358 2 360 359 359 357 357 353 355 357 356
243 253 243 250 253 257 265 265 259 262 267 276 282 292 300 314 322 332 340 348 347 346 325 332 335 338 343 345 346 346 337 338 342 350 348 345 346 349 349 350 351 351 354 348 347 355 359
235 237 249 245 249 250 263 269 262 263 266 271 272 282 293 301 310 322 334 341 339 335 332 324 329 333 339 338 339 346 338 332 338 334 340 343 342 341 341 342 343 344 344 343 344 350 350
223 239 246 250 249 249 259 267 265 260 261 264 268 277 284 291 301 308 316 328 335 339 329 323 327 329 334 334 333 339 341 332 336 335 328 331 334 334 336 336 337 339 342 343 343 342 343
235 230 234 250 249 251 261 261 262 263 257 263 268 272 278 285 292 296 304 311 321 330 321 322 325 328 333 331 330 335 339 334 333 332 323 324 331 329 332 333 338 339 340 340 339 336 341
223 226 225 245 247 248 246 256 265 273 263 260 265 268 272 278 284 291 296 303 313 316 322 323 319 322 328 328 327 330 332 333 325 324 322 320 322 326 329 335 337 336 336 339 338 338 337
225 222 230 236 248 251 253 257 258 268 262 259 262 266 271 274 280 287 294 298 304 311 314 320 318 317 321 319 321 328 330 328 325 324 321 320 322 324 325 328 330 331 336 339 338 337 336
221 219 227 250 244 243 243 251 256 262 262 259 259 263 267 271 275 281 288 292 299 304 309 314 318 314 319 315 319 324 326 327 324 321 320 319 320 323 324 325 327 330 335 332 332 334 339
221 225 227 239 239 244 243 243 253 259 266 267 256 261 265 268 275 279 283 287 295 301 303 308 314 312 313 313 317 323 323 324 321 323 326 326 322 325 328 327 326 327 327 327 328 334 338
225 229 230 234 237 240 242 246 246 255 260 269 268 263 264 267 271 276 279 284 290 295 298 303 309 310 309 311 316 318 323 324 319 321 324 326 324 324 324 326 326 326 325 328 328 330 332
234 232 237 239 244 246 245 249 250 254 258 261 272 267 266 268 270 273 277 283 287 292 296 300 305 307 306 311 314 318 323 322 316 317 320 322 324 324 323 322 323 329 330 329 329 328 329
245 240 236 241 246 247 247 250 254 256 260 257 269 273 266 269 269 270 274 281 284 289 294 298 302 302 305 309 312 316 316 319 315 313 314 316 316 321 322 323 326 327 327 326 326 326 329
251 245 242 243 248 247 243 247 252 256 256 255 266 273 269 269 269 270 273 278 284 287 293 295 300 301 304 308 311 313 313 315 316 317 314 311 313 320 321 321 322 324 323 324 328 328 328
250 248 248 242 245 243 245 249 249 248 248 254 262 271 270 268 269 273 273 278 283 286 291 294 298 300 304 307 309 311 312 312 311 317 313 313 316 319 320 321 323 325 325 328 329 330 331
247 250 251 247 242 240 243 245 246 247 249 257 260 264 269 267 268 273 275 277 282 284 289 293 297 299 302 304 307 310 309 310 313 314 316 316 313 318 322 324 325 326 325 327 327 327 328
248 248 251 253 250 243 243 245 248 251 254 258 260 265 266 269 272 272 274 276 280 283 287 291 294 295 301 303 305 311 309 307 308 311 310 311 313 315 318 317 319 321 321 322 324 323 329
246 249 249 250 251 248 247 247 248 253 256 259 262 263 266 268 271 272 273 276 280 283 286 289 292 296 301 302 305 311 315 313 314 315 311 310 313 313 314 313 318 319 321 322 320 323 327
243 247 250 251 251 249 249 247 248 250 252 256 261 262 264 267 269 270 274 278 282 285 287 288 292 297 301 302 304 307 310 310 311 310 311 311 311 314 316 318 320 320 319 320 323 322 328
244 245 247 249 253 254 254 256 259 259 258 260 261 263 264 266 269 272 276 279 283 285 287 290 294 298 299 299 301 304 305 305 309 307 309 311 313 313 314 315 316 316 317 317 320 327 328
242 245 247 249 250 253 257 258 258 259 260 263 266 267 268 269 271 274 278 281 282 285 289 292 295 294 295 297 300 301 304 307 309 306 307 309 311 312 313 315 316 315 317 321 323 328 329
240 243 245 249 252 253 255 258 260 261 263 265 267 267 268 269 269 272 277 279 284 288 289 290 292 294 294 297 301 304 306 306 306 306 306 307 308 313 314 314 314 317 317 318 321 326 329
240 243 245 247 250 254 255 258 261 263 264 265 267 269 270 270 272 276 279 281 284 285 288 288 290 292 294 297 300 302 303 304 305 306 307 309 309 310 312 315 316 317 316 319 321 326 330
240 241 243 247 251 251 255 258 260 263 266 267 268 269 272 274 274 274 277 279 280 282 286 286 289 292 297 298 297 298 299 300 303 305 307 307 307 310 312 316 318 320 319 317 319 324 328